When you browse on this site, cookies collect data to enhance your experience and personalize the content and advertising you see.
Visit our Privacy Policy to learn more. By continuing to use the site, you agree to this use of cookies and data.
  • In United Kingdom
  • List of Countries
  • For 7 days
  • Water Temperature
  • Weather Map
  • Weather Widgets
  • user-avatar
    Login

    Hourly Weather Salta

    Today, 4 June, Thursday

    Time Temperature Precipitation Wind Pressure Humidity
    00:00 +9°C° 0 mm 1 mps 651 mmHg 86%
    01:00 +9°C° 0 mm 1 mps 652 mmHg 86%
    02:00 +9°C° 0 mm 1 mps 652 mmHg 86%
    03:00 +9°C° 0 mm 1 mps 651 mmHg 87%
    04:00 +9°C° 0 mm 1 mps 651 mmHg 88%
    05:00 +8°C° 0 mm 1 mps 651 mmHg 89%
    06:00 +8°C° 0 mm 1 mps 651 mmHg 88%
    07:00 +8°C° 0 mm 1 mps 651 mmHg 87%
    08:00 +9°C° 0 mm 1 mps 651 mmHg 87%
    09:00 +8°C° 0 mm 2 mps 651 mmHg 83%
    10:00 +9°C° 0 mm 2 mps 651 mmHg 79%
    11:00 +10°C° 0 mm 2 mps 651 mmHg 75%
    12:00 +9°C° 0 mm 2 mps 650 mmHg 76%
    13:00 +9°C° 0 mm 2 mps 649 mmHg 77%
    14:00 +9°C° 0 mm 2 mps 648 mmHg 78%
    15:00 +9°C° 0 mm 2 mps 647 mmHg 80%
    16:00 +8°C° 0 mm 2 mps 647 mmHg 82%
    17:00 +8°C° 0 mm 2 mps 647 mmHg 84%
    18:00 +8°C° 0.2 mm 2 mps 647 mmHg 87%
    19:00 +7°C° 0.2 mm 2 mps 648 mmHg 90%
    20:00 +7°C° 0.2 mm 2 mps 648 mmHg 93%
    21:00 +8°C° 0.3 mm 1 mps 649 mmHg 94%
    22:00 +8°C° 0.3 mm 1 mps 649 mmHg 94%
    23:00 +8°C° 0.3 mm 1 mps 649 mmHg 94%

    Tomorrow, 5 June, Friday

    Time Temperature Precipitation Wind Pressure Humidity
    00:00 +8°C° 0.1 mm 1 mps 649 mmHg 94%
    01:00 +7°C° 0.1 mm 1 mps 649 mmHg 94%
    02:00 +6°C° 0.1 mm 0 mps 650 mmHg 94%
    03:00 +6°C° 0 mm 0 mps 650 mmHg 93%
    04:00 +6°C° 0 mm 1 mps 650 mmHg 91%
    05:00 +6°C° 0 mm 1 mps 650 mmHg 90%
    06:00 +6°C° 0 mm 1 mps 651 mmHg 86%
    07:00 +7°C° 0 mm 1 mps 651 mmHg 82%
    08:00 +7°C° 0 mm 1 mps 652 mmHg 77%
    09:00 +10°C° 0 mm 1 mps 652 mmHg 69%
    10:00 +12°C° 0 mm 1 mps 653 mmHg 61%
    11:00 +15°C° 0 mm 2 mps 654 mmHg 53%
    12:00 +16°C° 0 mm 2 mps 653 mmHg 49%
    13:00 +17°C° 0 mm 2 mps 653 mmHg 44%
    14:00 +18°C° 0 mm 2 mps 652 mmHg 40%
    15:00 +17°C° 0 mm 2 mps 652 mmHg 44%
    16:00 +16°C° 0 mm 2 mps 652 mmHg 48%
    17:00 +15°C° 0 mm 1 mps 652 mmHg 51%
    18:00 +13°C° 0 mm 1 mps 652 mmHg 55%
    19:00 +11°C° 0 mm 1 mps 652 mmHg 58%
    20:00 +9°C° 0 mm 1 mps 652 mmHg 62%
    21:00 +9°C° 0 mm 1 mps 652 mmHg 61%
    22:00 +8°C° 0 mm 0 mps 652 mmHg 61%
    23:00 +7°C° 0 mm 0 mps 652 mmHg 60%

    Day after tomorrow, 6 June, Saturday

    Time Temperature Precipitation Wind Pressure Humidity
    00:00 +7°C° 0 mm 0 mps 652 mmHg 60%
    01:00 +8°C° 0 mm 1 mps 651 mmHg 60%
    02:00 +7°C° 0 mm 1 mps 651 mmHg 61%
    03:00 +7°C° 0 mm 1 mps 651 mmHg 59%
    04:00 +7°C° 0 mm 1 mps 651 mmHg 57%
    05:00 +7°C° 0 mm 1 mps 651 mmHg 55%
    06:00 +8°C° 0 mm 1 mps 651 mmHg 53%
    07:00 +9°C° 0 mm 1 mps 652 mmHg 50%
    08:00 +10°C° 0 mm 1 mps 652 mmHg 47%
    09:00 +13°C° 0 mm 1 mps 653 mmHg 40%
    10:00 +18°C° 0 mm 1 mps 654 mmHg 34%
    11:00 +21°C° 0 mm 1 mps 654 mmHg 27%
    12:00 +22°C° 0 mm 1 mps 654 mmHg 26%
    13:00 +22°C° 0 mm 1 mps 653 mmHg 24%
    14:00 +23°C° 0 mm 2 mps 653 mmHg 23%
    15:00 +22°C° 0 mm 1 mps 652 mmHg 27%
    16:00 +20°C° 0 mm 1 mps 652 mmHg 31%
    17:00 +19°C° 0 mm 1 mps 651 mmHg 35%
    18:00 +16°C° 0 mm 1 mps 651 mmHg 36%
    19:00 +14°C° 0 mm 1 mps 651 mmHg 37%
    20:00 +12°C° 0 mm 1 mps 651 mmHg 39%
    21:00 +11°C° 0 mm 1 mps 651 mmHg 40%
    22:00 +11°C° 0 mm 1 mps 651 mmHg 42%
    23:00 +10°C° 0 mm 1 mps 651 mmHg 44%

    7 June, Sunday

    Time Temperature Precipitation Wind Pressure Humidity
    00:00 +10°C° 0 mm 1 mps 651 mmHg 43%
    01:00 +10°C° 0 mm 1 mps 650 mmHg 42%
    02:00 +10°C° 0 mm 1 mps 650 mmHg 41%
    03:00 +10°C° 0 mm 1 mps 650 mmHg 41%
    04:00 +10°C° 0 mm 1 mps 650 mmHg 40%
    05:00 +10°C° 0 mm 1 mps 650 mmHg 40%
    06:00 +11°C° 0 mm 1 mps 651 mmHg 39%
    07:00 +11°C° 0 mm 1 mps 651 mmHg 38%
    08:00 +12°C° 0 mm 1 mps 652 mmHg 37%
    09:00 +15°C° 0 mm 1 mps 653 mmHg 33%
    10:00 +19°C° 0 mm 1 mps 653 mmHg 28%
    11:00 +22°C° 0 mm 1 mps 654 mmHg 24%
    12:00 +23°C° 0 mm 1 mps 654 mmHg 24%
    13:00 +24°C° 0 mm 1 mps 653 mmHg 24%
    14:00 +25°C° 0 mm 1 mps 653 mmHg 24%
    15:00 +23°C° 0 mm 1 mps 652 mmHg 29%
    16:00 +22°C° 0 mm 1 mps 652 mmHg 35%
    17:00 +20°C° 0 mm 1 mps 651 mmHg 41%
    18:00 +18°C° 0 mm 1 mps 651 mmHg 45%
    19:00 +15°C° 0 mm 1 mps 651 mmHg 50%
    20:00 +14°C° 0 mm 1 mps 651 mmHg 55%
    21:00 +13°C° 0 mm 1 mps 651 mmHg 59%
    22:00 +13°C° 0 mm 1 mps 651 mmHg 63%
    23:00 +12°C° 0 mm 1 mps 651 mmHg 66%

    8 June, Monday

    Time Temperature Precipitation Wind Pressure Humidity
    00:00 +12°C° 0 mm 1 mps 651 mmHg 67%
    01:00 +12°C° 0 mm 1 mps 651 mmHg 67%
    02:00 +12°C° 0 mm 1 mps 651 mmHg 68%
    03:00 +12°C° 0 mm 1 mps 651 mmHg 66%
    04:00 +12°C° 0 mm 2 mps 651 mmHg 64%
    05:00 +12°C° 0 mm 2 mps 651 mmHg 62%
    06:00 +12°C° 0 mm 2 mps 651 mmHg 58%
    07:00 +13°C° 0 mm 1 mps 652 mmHg 55%
    08:00 +14°C° 0 mm 1 mps 653 mmHg 52%
    09:00 +16°C° 0 mm 1 mps 653 mmHg 46%
    10:00 +20°C° 0 mm 1 mps 654 mmHg 41%
    11:00 +23°C° 0 mm 1 mps 655 mmHg 35%
    12:00 +24°C° 0 mm 1 mps 654 mmHg 34%
    13:00 +24°C° 0 mm 1 mps 654 mmHg 33%
    14:00 +25°C° 0 mm 1 mps 653 mmHg 32%
    15:00 +24°C° 0 mm 1 mps 652 mmHg 38%
    16:00 +22°C° 0 mm 1 mps 652 mmHg 44%
    17:00 +20°C° 0 mm 1 mps 651 mmHg 50%
    18:00 +19°C° 0 mm 1 mps 651 mmHg 55%
    19:00 +16°C° 0 mm 1 mps 651 mmHg 60%
    20:00 +14°C° 0 mm 1 mps 651 mmHg 64%
    21:00 +14°C° 0 mm 1 mps 651 mmHg 66%
    22:00 +14°C° 0 mm 1 mps 651 mmHg 68%
    23:00 +13°C° 0 mm 1 mps 651 mmHg 69%

    9 June, Tuesday

    Time Temperature Precipitation Wind Pressure Humidity
    00:00 +13°C° 0 mm 1 mps 650 mmHg 70%
    01:00 +13°C° 0 mm 1 mps 650 mmHg 71%
    02:00 +12°C° 0 mm 1 mps 650 mmHg 72%
    03:00 +12°C° 0 mm 1 mps 650 mmHg 73%
    04:00 +12°C° 0 mm 1 mps 650 mmHg 73%
    05:00 +12°C° 0 mm 1 mps 650 mmHg 73%
    06:00 +12°C° 0 mm 1 mps 650 mmHg 72%
    07:00 +13°C° 0 mm 1 mps 651 mmHg 71%
    08:00 +13°C° 0 mm 1 mps 651 mmHg 70%
    09:00 +15°C° 0 mm 1 mps 652 mmHg 66%
    10:00 +18°C° 0 mm 1 mps 652 mmHg 62%
    11:00 +21°C° 0 mm 1 mps 653 mmHg 58%
    12:00 +21°C° 0 mm 1 mps 652 mmHg 56%
    13:00 +21°C° 0 mm 2 mps 651 mmHg 54%
    14:00 +21°C° 0 mm 2 mps 650 mmHg 52%
    15:00 +20°C° 0 mm 2 mps 650 mmHg 58%
    16:00 +19°C° 0 mm 2 mps 650 mmHg 63%
    17:00 +18°C° 0 mm 2 mps 649 mmHg 68%
    18:00 +17°C° 0 mm 2 mps 649 mmHg 73%
    19:00 +15°C° 0 mm 1 mps 649 mmHg 79%
    20:00 +14°C° 0 mm 1 mps 649 mmHg 84%
    21:00 +14°C° 0 mm 1 mps 650 mmHg 83%
    22:00 +14°C° 0 mm 1 mps 650 mmHg 83%
    23:00 +14°C° 0 mm 1 mps 650 mmHg 83%
    Show more